Kiripotib Landing Site

Jump to: basic info | weather | comments

Related pages: nearby airports | nearby navaids

Basic information (top)

Location: lon -23.328300, lat 17.946400, elev 4,475 ft / 1,364 m msl
Status: small_airport

Weather (top)

Current conditions for Hosea Kutako International Airport 57nm (106km) NNW (rec'd 2015/02/27 15:00Z):

FYWH 271500Z 28010KT CAVOK 30/M05 Q1018

Airport forecast for Hosea Kutako International Airport 57nm (106km) NNW (rec'd 2015/02/23 12:30Z):

TAF TAF FYWH 231000Z 2312/2418 17005KT 9999 SCT050 
      BECMG 2316/2318 25006KT -TSRA FEW040CB SCT045TCU 
      TEMPO 2323/2403 16005KT FEW020 
      BECMG 2418/2410 04006KT CAVOK 
      BECMG 2410/2412 9999 SCT050TCU 
      BECMG 2413/2415 -TSRA FEW040CB

Latest comments (top)

More details: Once can also land in the nearby salt ... [read]

Kiripotib Landing Strip Details: GPS location: S 23° 19' 50'' E 17° ... [read]

More... (top)

See also NOTAMs and nearby airports and navaids, or visit the Kiripotib Landing Site page at the main OurAirports website..